GFSWCAN_prec_precacc12_180.txt.gz
Total_Precipitation_Accumulation
0.09 0.09 0.08 0.04 0.03 0.02 0.01 0.01 0.00 0.00 0.00 0.00 0.00 0.00 0.00 0.01 0.02 0.04 0.01 0.03 0.17 0.27 0.08 0.03 0.02 0.03 0.04 0.05 0.08 0.06 0.08 0.04 0.06 0.15 0.22 0.16 0.09 0.04 0.02 0.00 0.00 0.00 0.02 0.02 0.02 0.06 0.03 0.00 0.01 0.01 0.02 0.02 0.02 0.02
0.16 0.12 0.09 0.08 0.04 0.02 0.02 0.01 0.00 0.00 0.00 0.00 0.01 0.00 0.01 0.01 0.02 0.06 0.02 0.01 0.08 0.29 0.14 0.01 0.00 0.00 0.01 0.02 0.08 0.07 0.09 0.07 0.09 0.08 0.05 0.03 0.02 0.01 0.01 0.01 0.04 0.03 0.05 0.04 0.02 0.01 0.01 0.00 0.01 0.02 0.01 0.00 0.01 0.01
0.12 0.16 0.16 0.11 0.07 0.04 0.02 0.03 0.01 0.01 0.02 0.01 0.01 0.01 0.01 0.01 0.02 0.04 0.03 0.03 0.14 0.24 0.16 0.05 0.00 0.00 0.00 0.01 0.04 0.11 0.07 0.11 0.19 0.21 0.27 0.18 0.09 0.02 0.02 0.03 0.05 0.06 0.14 0.30 0.36 0.21 0.07 0.01 0.01 0.01 0.01 0.01 0.01 0.01
0.10 0.08 0.12 0.17 0.14 0.09 0.06 0.04 0.03 0.02 0.01 0.01 0.02 0.01 0.02 0.04 0.04 0.06 0.03 0.06 0.14 0.18 0.12 0.02 0.00 0.00 0.00 0.00 0.01 0.02 0.05 0.12 0.18 0.23 0.29 0.32 0.21 0.07 0.03 0.04 0.05 0.06 0.06 0.06 0.10 0.04 0.01 0.00 0.00 0.01 0.02 0.02 0.02 0.01
0.05 0.04 0.05 0.09 0.15 0.16 0.13 0.10 0.05 0.03 0.01 0.01 0.01 0.02 0.03 0.04 0.07 0.08 0.05 0.12 0.22 0.24 0.14 0.02 0.00 0.00 0.00 0.00 0.00 0.02 0.06 0.12 0.22 0.31 0.32 0.19 0.07 0.04 0.02 0.02 0.01 0.00 0.00 0.00 0.00 0.00 0.00 0.00 0.00 0.00 0.00 0.00 0.00 0.00
0.03 0.02 0.02 0.04 0.05 0.10 0.17 0.18 0.13 0.05 0.03 0.02 0.03 0.04 0.04 0.06 0.12 0.11 0.14 0.14 0.29 0.50 0.42 0.12 0.00 0.00 0.00 0.00 0.00 0.00 0.01 0.07 0.20 0.28 0.22 0.16 0.08 0.09 0.07 0.01 0.00 0.00 0.00 0.00 0.00 0.00 0.00 0.00 0.00 0.00 0.00 0.00 0.00 0.00
0.03 0.02 0.02 0.02 0.03 0.03 0.07 0.11 0.13 0.10 0.04 0.04 0.04 0.06 0.06 0.09 0.09 0.09 0.13 0.08 0.10 0.29 0.41 0.18 0.02 0.00 0.00 0.00 0.00 0.00 0.03 0.08 0.09 0.12 0.10 0.04 0.01 0.02 0.02 0.01 0.00 0.00 0.00 0.00 0.00 0.00 0.00 0.00 0.00 0.00 0.00 0.00 0.00 0.00
0.03 0.02 0.02 0.02 0.02 0.04 0.03 0.05 0.06 0.05 0.04 0.07 0.12 0.11 0.12 0.18 0.25 0.16 0.11 0.16 0.22 0.29 0.19 0.11 0.02 0.00 0.00 0.00 0.02 0.02 0.06 0.13 0.16 0.07 0.01 0.00 0.01 0.03 0.01 0.00 0.00 0.00 0.00 0.00 0.00 0.00 0.00 0.00 0.00 0.00 0.00 0.00 0.00 0.00
0.02 0.02 0.02 0.02 0.04 0.04 0.03 0.03 0.03 0.04 0.08 0.14 0.20 0.23 0.31 0.40 0.30 0.19 0.09 0.20 0.46 0.82 0.52 0.14 0.01 0.00 0.01 0.01 0.02 0.09 0.16 0.23 0.15 0.05 0.01 0.02 0.03 0.04 0.00 0.00 0.00 0.00 0.00 0.00 0.00 0.00 0.00 0.00 0.00 0.00 0.00 0.00 0.00 0.00
0.01 0.02 0.02 0.02 0.04 0.04 0.04 0.02 0.06 0.14 0.19 0.25 0.34 0.58 0.55 0.24 0.20 0.28 0.39 0.45 0.43 0.36 0.24 0.13 0.05 0.03 0.03 0.04 0.07 0.06 0.08 0.07 0.08 0.02 0.02 0.09 0.02 0.00 0.00 0.00 0.00 0.00 0.00 0.00 0.00 0.00 0.00 0.00 0.00 0.00 0.00 0.00 0.00 0.00
0.03 0.01 0.01 0.01 0.04 0.03 0.04 0.06 0.25 0.37 0.30 0.40 0.41 0.31 0.22 0.22 0.33 0.30 0.41 0.46 0.25 0.16 0.06 0.01 0.00 0.02 0.04 0.14 0.15 0.09 0.10 0.06 0.07 0.00 0.02 0.03 0.01 0.00 0.00 0.00 0.00 0.00 0.00 0.00 0.00 0.00 0.00 0.00 0.00 0.00 0.00 0.00 0.00 0.00
0.03 0.03 0.03 0.03 0.06 0.08 0.10 0.19 0.48 0.25 0.17 0.13 0.17 0.42 0.46 0.51 0.30 0.22 0.18 0.15 0.18 0.06 0.00 0.00 0.00 0.00 0.01 0.02 0.06 0.11 0.11 0.12 0.09 0.12 0.19 0.04 0.01 0.00 0.00 0.00 0.00 0.00 0.00 0.00 0.00 0.00 0.00 0.00 0.00 0.00 0.00 0.00 0.00 0.00
0.12 0.11 0.10 0.09 0.09 0.13 0.17 0.26 0.20 0.13 0.08 0.10 0.26 0.70 0.65 0.28 0.18 0.07 0.06 0.06 0.03 0.02 0.01 0.00 0.00 0.01 0.02 0.03 0.06 0.06 0.09 0.12 0.17 0.29 0.15 0.02 0.01 0.02 0.03 0.03 0.05 0.08 0.13 0.14 0.11 0.06 0.02 0.00 0.00 0.00 0.00 0.00 0.00 0.00
0.07 0.06 0.08 0.09 0.12 0.17 0.18 0.15 0.15 0.17 0.18 0.26 0.27 0.29 0.22 0.09 0.06 0.04 0.01 0.01 0.01 0.01 0.01 0.01 0.02 0.03 0.03 0.04 0.05 0.04 0.01 0.01 0.07 0.11 0.04 0.01 0.03 0.03 0.03 0.03 0.07 0.12 0.12 0.07 0.02 0.00 0.00 0.00 0.00 0.00 0.00 0.00 0.00 0.00
0.05 0.07 0.11 0.14 0.12 0.13 0.14 0.13 0.11 0.12 0.16 0.33 0.35 0.18 0.03 0.01 0.02 0.03 0.01 0.00 0.01 0.00 0.01 0.06 0.21 0.32 0.27 0.16 0.06 0.02 0.04 0.02 0.00 0.00 0.00 0.00 0.01 0.01 0.01 0.01 0.05 0.08 0.02 0.00 0.00 0.00 0.00 0.00 0.00 0.00 0.00 0.00 0.00 0.00
0.06 0.11 0.13 0.10 0.09 0.10 0.10 0.10 0.14 0.18 0.19 0.16 0.22 0.15 0.01 0.00 0.00 0.00 0.00 0.00 0.00 0.00 0.02 0.07 0.17 0.31 0.41 0.27 0.28 0.06 0.01 0.00 0.00 0.00 0.01 0.01 0.01 0.00 0.01 0.02 0.04 0.03 0.00 0.00 0.00 0.00 0.00 0.00 0.00 0.00 0.00 0.00 0.00 0.00
0.07 0.10 0.11 0.10 0.08 0.07 0.09 0.15 0.21 0.17 0.13 0.11 0.04 0.04 0.01 0.00 0.00 0.00 0.00 0.00 0.00 0.02 0.03 0.16 0.25 0.09 0.07 0.13 0.10 0.03 0.00 0.00 0.00 0.01 0.01 0.00 0.00 0.01 0.03 0.05 0.05 0.01 0.00 0.00 0.00 0.00 0.00 0.00 0.00 0.00 0.00 0.00 0.00 0.00
0.06 0.04 0.07 0.06 0.11 0.19 0.26 0.20 0.19 0.13 0.04 0.01 0.01 0.00 0.00 0.00 0.00 0.00 0.01 0.01 0.06 0.11 0.09 0.14 0.12 0.13 0.08 0.05 0.02 0.02 0.02 0.02 0.02 0.01 0.02 0.02 0.01 0.03 0.04 0.05 0.05 0.04 0.04 0.04 0.03 0.01 0.00 0.00 0.00 0.01 0.01 0.01 0.00 0.00
0.01 0.03 0.06 0.08 0.12 0.15 0.19 0.19 0.16 0.12 0.03 0.00 0.00 0.00 0.00 0.00 0.00 0.02 0.07 0.13 0.19 0.31 0.47 0.37 0.22 0.09 0.02 0.01 0.01 0.00 0.01 0.02 0.04 0.07 0.07 0.06 0.05 0.05 0.05 0.05 0.05 0.06 0.05 0.04 0.02 0.01 0.01 0.01 0.01 0.01 0.01 0.01 0.02 0.02
0.00 0.00 0.00 0.00 0.00 0.00 0.01 0.01 0.01 0.01 0.00 0.00 0.00 0.00 0.00 0.00 0.00 0.02 0.09 0.22 0.35 0.47 0.44 0.31 0.15 0.05 0.03 0.02 0.03 0.02 0.03 0.04 0.04 0.06 0.10 0.10 0.07 0.05 0.05 0.04 0.03 0.03 0.03 0.03 0.02 0.01 0.01 0.00 0.01 0.00 0.00 0.01 0.01 0.01
0.00 0.00 0.00 0.00 0.00 0.00 0.00 0.00 0.00 0.00 0.00 0.00 0.00 0.00 0.00 0.00 0.00 0.01 0.02 0.09 0.27 0.31 0.29 0.25 0.22 0.21 0.18 0.16 0.16 0.14 0.13 0.10 0.09 0.07 0.07 0.08 0.08 0.04 0.04 0.04 0.03 0.02 0.02 0.02 0.02 0.02 0.01 0.01 0.01 0.01 0.00 0.00 0.00 0.00
0.00 0.00 0.00 0.00 0.00 0.00 0.00 0.00 0.00 0.00 0.00 0.00 0.00 0.00 0.00 0.01 0.01 0.01 0.01 0.01 0.07 0.13 0.18 0.20 0.22 0.21 0.22 0.24 0.25 0.22 0.17 0.12 0.09 0.07 0.07 0.05 0.05 0.05 0.05 0.07 0.03 0.02 0.02 0.02 0.02 0.02 0.01 0.01 0.01 0.00 0.00 0.00 0.00 0.00
0.00 0.00 0.00 0.00 0.00 0.00 0.00 0.00 0.00 0.00 0.00 0.01 0.01 0.01 0.03 0.09 0.10 0.06 0.03 0.02 0.04 0.07 0.10 0.11 0.12 0.13 0.15 0.18 0.19 0.19 0.17 0.14 0.12 0.11 0.09 0.07 0.06 0.05 0.04 0.04 0.02 0.01 0.01 0.02 0.02 0.01 0.01 0.00 0.00 0.00 0.00 0.00 0.00 0.00
0.00 0.00 0.00 0.00 0.00 0.00 0.00 0.00 0.00 0.00 0.00 0.00 0.01 0.01 0.01 0.02 0.03 0.03 0.03 0.02 0.04 0.06 0.06 0.07 0.06 0.07 0.11 0.15 0.16 0.18 0.18 0.14 0.11 0.10 0.10 0.06 0.04 0.04 0.02 0.01 0.01 0.01 0.01 0.01 0.00 0.00 0.00 0.00 0.00 0.00 0.00 0.00 0.00 0.00
0.00 0.00 0.00 0.00 0.00 0.00 0.00 0.00 0.00 0.00 0.00 0.00 0.00 0.00 0.01 0.01 0.01 0.02 0.02 0.03 0.03 0.05 0.07 0.06 0.04 0.05 0.09 0.13 0.17 0.19 0.16 0.11 0.07 0.07 0.08 0.05 0.03 0.02 0.01 0.01 0.01 0.01 0.00 0.00 0.00 0.00 0.00 0.00 0.00 0.00 0.00 0.00 0.00 0.01
0.00 0.00 0.00 0.00 0.00 0.00 0.00 0.00 0.01 0.02 0.01 0.00 0.01 0.00 0.01 0.02 0.02 0.02 0.02 0.04 0.05 0.05 0.05 0.05 0.05 0.05 0.06 0.07 0.09 0.10 0.10 0.07 0.06 0.05 0.06 0.05 0.03 0.02 0.01 0.00 0.00 0.00 0.00 0.00 0.00 0.00 0.00 0.00 0.00 0.00 0.00 0.00 0.00 0.00
0.00 0.00 0.00 0.00 0.00 0.00 0.00 0.00 0.00 0.01 0.02 0.03 0.04 0.02 0.03 0.05 0.04 0.03 0.03 0.05 0.05 0.06 0.06 0.05 0.04 0.04 0.05 0.06 0.06 0.05 0.05 0.05 0.05 0.05 0.06 0.05 0.05 0.04 0.02 0.02 0.01 0.01 0.00 0.00 0.00 0.00 0.00 0.00 0.00 0.00 0.01 0.01 0.01 0.00
0.00 0.00 0.00 0.00 0.00 0.00 0.01 0.01 0.01 0.02 0.03 0.04 0.04 0.04 0.05 0.06 0.06 0.05 0.05 0.06 0.05 0.05 0.03 0.03 0.04 0.05 0.06 0.06 0.06 0.05 0.05 0.05 0.03 0.02 0.02 0.04 0.05 0.04 0.03 0.01 0.00 0.00 0.00 0.00 0.00 0.00 0.00 0.01 0.01 0.01 0.00 0.00 0.00 0.00
0.00 0.00 0.00 0.00 0.00 0.00 0.02 0.04 0.04 0.04 0.03 0.02 0.02 0.02 0.05 0.05 0.05 0.03 0.03 0.02 0.02 0.02 0.02 0.01 0.02 0.03 0.03 0.03 0.03 0.04 0.05 0.06 0.04 0.04 0.03 0.04 0.05 0.05 0.03 0.01 0.00 0.00 0.00 0.00 0.01 0.01 0.00 0.00 0.00 0.00 0.00 0.00 0.00 0.00
0.00 0.00 0.00 0.00 0.00 0.00 0.01 0.01 0.01 0.00 0.01 0.01 0.01 0.01 0.01 0.01 0.02 0.02 0.02 0.01 0.02 0.02 0.03 0.03 0.03 0.02 0.02 0.01 0.02 0.02 0.03 0.04 0.04 0.04 0.04 0.04 0.04 0.03 0.02 0.00 0.00 0.00 0.00 0.00 0.00 0.01 0.01 0.00 0.00 0.00 0.00 0.00 0.00 0.00
0.00 0.00 0.00 0.00 0.00 0.00 0.00 0.00 0.00 0.01 0.03 0.03 0.02 0.02 0.02 0.02 0.01 0.01 0.01 0.02 0.02 0.03 0.03 0.03 0.04 0.05 0.05 0.05 0.04 0.03 0.03 0.03 0.04 0.05 0.05 0.05 0.04 0.03 0.02 0.01 0.01 0.00 0.00 0.00 0.00 0.00 0.00 0.00 0.00 0.00 0.00 0.00 0.00 0.00
0.00 0.00 0.00 0.00 0.00 0.00 0.00 0.00 0.00 0.01 0.03 0.03 0.03 0.02 0.02 0.01 0.01 0.00 0.01 0.01 0.02 0.02 0.03 0.03 0.03 0.04 0.05 0.05 0.05 0.05 0.03 0.03 0.03 0.03 0.04 0.04 0.04 0.03 0.02 0.01 0.00 0.00 0.00 0.00 0.00 0.00 0.00 0.00 0.00 0.00 0.00 0.00 0.00 0.00
0.00 0.00 0.00 0.00 0.00 0.00 0.00 0.00 0.00 0.02 0.03 0.02 0.02 0.01 0.01 0.01 0.00 0.00 0.01 0.01 0.02 0.02 0.02 0.02 0.03 0.03 0.03 0.02 0.02 0.02 0.03 0.03 0.03 0.03 0.03 0.03 0.03 0.02 0.01 0.00 0.00 0.00 0.00 0.00 0.00 0.00 0.00 0.00 0.00 0.00 0.00 0.00 0.00 0.00

GFSWCAN_prec_precacc12_183.txt.gz
Total_Precipitation_Accumulation
0.06 0.07 0.08 0.04 0.03 0.03 0.02 0.02 0.01 0.00 0.01 0.01 0.00 0.00 0.00 0.00 0.01 0.03 0.01 0.00 0.03 0.14 0.05 0.01 0.02 0.03 0.05 0.07 0.11 0.11 0.10 0.07 0.12 0.20 0.25 0.19 0.12 0.07 0.05 0.03 0.04 0.05 0.06 0.06 0.05 0.08 0.04 0.00 0.01 0.02 0.03 0.02 0.02 0.03
0.10 0.08 0.08 0.08 0.04 0.03 0.02 0.01 0.01 0.00 0.00 0.00 0.00 0.00 0.00 0.01 0.02 0.05 0.01 0.01 0.02 0.04 0.03 0.00 0.00 0.00 0.01 0.02 0.08 0.08 0.11 0.11 0.18 0.17 0.16 0.15 0.09 0.06 0.04 0.03 0.02 0.02 0.04 0.04 0.03 0.03 0.01 0.00 0.00 0.01 0.01 0.00 0.01 0.01
0.10 0.13 0.15 0.11 0.07 0.04 0.03 0.03 0.01 0.00 0.00 0.00 0.00 0.00 0.00 0.01 0.02 0.04 0.01 0.01 0.03 0.03 0.01 0.00 0.00 0.00 0.00 0.01 0.03 0.11 0.07 0.10 0.18 0.24 0.31 0.29 0.17 0.07 0.07 0.05 0.05 0.04 0.09 0.14 0.23 0.16 0.06 0.01 0.01 0.01 0.01 0.00 0.01 0.01
0.13 0.09 0.13 0.18 0.14 0.09 0.06 0.03 0.02 0.00 0.00 0.00 0.00 0.00 0.01 0.03 0.03 0.06 0.01 0.01 0.03 0.04 0.03 0.00 0.00 0.00 0.00 0.00 0.01 0.02 0.04 0.07 0.16 0.24 0.41 0.42 0.23 0.09 0.06 0.06 0.06 0.04 0.05 0.06 0.07 0.01 0.01 0.00 0.00 0.01 0.02 0.02 0.02 0.01
0.15 0.10 0.07 0.11 0.17 0.19 0.15 0.10 0.04 0.02 0.00 0.00 0.00 0.01 0.02 0.03 0.07 0.08 0.05 0.02 0.03 0.07 0.08 0.03 0.00 0.00 0.00 0.00 0.00 0.02 0.06 0.11 0.19 0.30 0.35 0.21 0.08 0.08 0.06 0.04 0.02 0.01 0.01 0.03 0.02 0.00 0.01 0.00 0.00 0.00 0.00 0.00 0.00 0.00
0.08 0.10 0.06 0.05 0.08 0.14 0.20 0.22 0.15 0.05 0.02 0.01 0.01 0.02 0.03 0.06 0.10 0.06 0.04 0.01 0.01 0.15 0.29 0.13 0.00 0.00 0.00 0.00 0.00 0.00 0.01 0.07 0.21 0.30 0.24 0.18 0.09 0.15 0.16 0.06 0.01 0.00 0.00 0.00 0.00 0.00 0.00 0.00 0.00 0.00 0.00 0.00 0.00 0.00
0.03 0.03 0.03 0.02 0.04 0.05 0.08 0.12 0.18 0.21 0.09 0.02 0.03 0.04 0.05 0.08 0.04 0.01 0.03 0.04 0.01 0.09 0.31 0.20 0.02 0.00 0.00 0.00 0.00 0.00 0.04 0.10 0.13 0.14 0.12 0.06 0.03 0.08 0.08 0.02 0.00 0.00 0.00 0.00 0.00 0.00 0.00 0.00 0.00 0.00 0.00 0.00 0.00 0.00
0.02 0.02 0.02 0.02 0.03 0.05 0.04 0.04 0.06 0.09 0.15 0.05 0.05 0.07 0.10 0.15 0.16 0.07 0.03 0.07 0.17 0.19 0.21 0.13 0.02 0.00 0.00 0.01 0.05 0.04 0.07 0.15 0.21 0.15 0.08 0.04 0.04 0.08 0.05 0.00 0.00 0.00 0.00 0.00 0.00 0.00 0.00 0.00 0.00 0.00 0.00 0.00 0.00 0.00
0.02 0.02 0.02 0.02 0.04 0.04 0.03 0.02 0.03 0.04 0.07 0.11 0.12 0.11 0.15 0.21 0.10 0.01 0.03 0.07 0.40 0.87 0.58 0.18 0.02 0.00 0.04 0.05 0.09 0.11 0.16 0.20 0.14 0.11 0.05 0.07 0.05 0.05 0.00 0.00 0.00 0.00 0.00 0.00 0.00 0.00 0.00 0.00 0.00 0.00 0.00 0.00 0.00 0.00
0.01 0.01 0.02 0.02 0.04 0.05 0.04 0.02 0.05 0.08 0.13 0.20 0.19 0.26 0.24 0.06 0.03 0.12 0.26 0.34 0.39 0.37 0.28 0.15 0.06 0.05 0.05 0.09 0.13 0.13 0.19 0.19 0.14 0.04 0.04 0.13 0.02 0.00 0.00 0.00 0.00 0.00 0.00 0.00 0.00 0.00 0.00 0.00 0.00 0.00 0.00 0.00 0.00 0.00
0.00 0.01 0.00 0.01 0.04 0.04 0.05 0.04 0.08 0.14 0.23 0.30 0.25 0.11 0.13 0.10 0.19 0.29 0.41 0.47 0.27 0.18 0.07 0.01 0.00 0.02 0.04 0.15 0.20 0.17 0.15 0.10 0.08 0.03 0.04 0.03 0.00 0.00 0.00 0.00 0.00 0.00 0.00 0.00 0.00 0.00 0.00 0.00 0.00 0.00 0.00 0.00 0.00 0.00
0.01 0.01 0.01 0.01 0.03 0.07 0.07 0.05 0.10 0.15 0.13 0.10 0.11 0.36 0.49 0.52 0.37 0.24 0.21 0.19 0.22 0.07 0.01 0.00 0.00 0.00 0.01 0.02 0.12 0.29 0.18 0.12 0.09 0.09 0.13 0.02 0.00 0.00 0.00 0.00 0.00 0.00 0.00 0.00 0.00 0.00 0.00 0.00 0.00 0.00 0.00 0.00 0.00 0.00
0.01 0.01 0.02 0.02 0.03 0.05 0.05 0.08 0.12 0.15 0.11 0.13 0.29 0.73 0.69 0.30 0.27 0.11 0.07 0.06 0.04 0.04 0.04 0.03 0.03 0.02 0.04 0.07 0.12 0.12 0.07 0.06 0.09 0.14 0.05 0.00 0.01 0.02 0.02 0.03 0.04 0.08 0.13 0.15 0.13 0.08 0.03 0.01 0.00 0.00 0.00 0.00 0.00 0.00
0.02 0.02 0.03 0.04 0.06 0.11 0.13 0.12 0.15 0.20 0.24 0.30 0.32 0.31 0.28 0.19 0.08 0.04 0.02 0.03 0.05 0.04 0.04 0.08 0.08 0.05 0.06 0.08 0.10 0.07 0.04 0.02 0.05 0.06 0.03 0.01 0.03 0.03 0.03 0.03 0.07 0.13 0.16 0.13 0.07 0.02 0.00 0.00 0.00 0.00 0.00 0.00 0.00 0.01
0.04 0.06 0.10 0.13 0.13 0.15 0.16 0.14 0.12 0.14 0.19 0.35 0.39 0.21 0.05 0.03 0.05 0.10 0.07 0.03 0.02 0.02 0.04 0.13 0.18 0.14 0.17 0.16 0.06 0.04 0.05 0.02 0.01 0.00 0.01 0.01 0.00 0.01 0.01 0.01 0.05 0.09 0.07 0.02 0.00 0.00 0.00 0.00 0.00 0.00 0.00 0.00 0.00 0.00
0.06 0.12 0.13 0.09 0.10 0.11 0.12 0.12 0.16 0.22 0.21 0.17 0.23 0.20 0.12 0.09 0.05 0.02 0.02 0.01 0.02 0.01 0.04 0.07 0.12 0.17 0.25 0.21 0.23 0.05 0.01 0.00 0.01 0.03 0.03 0.00 0.00 0.00 0.01 0.01 0.04 0.04 0.01 0.00 0.00 0.00 0.00 0.00 0.00 0.00 0.00 0.00 0.00 0.00
0.07 0.10 0.11 0.10 0.09 0.10 0.12 0.17 0.23 0.19 0.14 0.13 0.05 0.07 0.11 0.12 0.08 0.03 0.01 0.01 0.02 0.03 0.05 0.10 0.10 0.07 0.08 0.15 0.10 0.05 0.02 0.03 0.04 0.03 0.00 0.00 0.00 0.01 0.02 0.05 0.06 0.03 0.01 0.00 0.00 0.00 0.00 0.00 0.00 0.00 0.00 0.00 0.00 0.00
0.08 0.05 0.08 0.06 0.11 0.22 0.33 0.22 0.24 0.18 0.06 0.02 0.03 0.04 0.04 0.03 0.01 0.00 0.00 0.01 0.05 0.08 0.09 0.12 0.11 0.14 0.09 0.04 0.03 0.09 0.06 0.02 0.01 0.01 0.02 0.02 0.01 0.03 0.05 0.06 0.07 0.07 0.06 0.05 0.03 0.01 0.00 0.00 0.00 0.01 0.01 0.01 0.00 0.00
0.08 0.13 0.16 0.14 0.17 0.21 0.30 0.27 0.20 0.18 0.09 0.06 0.03 0.01 0.00 0.00 0.00 0.00 0.02 0.07 0.11 0.15 0.30 0.28 0.17 0.09 0.03 0.03 0.03 0.01 0.01 0.01 0.04 0.07 0.07 0.06 0.05 0.05 0.07 0.07 0.08 0.09 0.08 0.06 0.03 0.01 0.01 0.00 0.01 0.01 0.01 0.01 0.01 0.01
0.01 0.05 0.12 0.15 0.12 0.16 0.20 0.14 0.12 0.10 0.05 0.02 0.00 0.00 0.00 0.00 0.00 0.01 0.04 0.12 0.22 0.38 0.41 0.32 0.16 0.08 0.04 0.02 0.03 0.02 0.03 0.04 0.06 0.08 0.11 0.13 0.11 0.09 0.09 0.07 0.06 0.07 0.06 0.05 0.02 0.01 0.00 0.00 0.01 0.00 0.00 0.01 0.01 0.01
0.00 0.00 0.00 0.03 0.07 0.06 0.05 0.02 0.02 0.02 0.02 0.01 0.01 0.00 0.01 0.00 0.00 0.01 0.02 0.08 0.29 0.35 0.31 0.25 0.22 0.21 0.18 0.16 0.16 0.15 0.14 0.12 0.13 0.11 0.12 0.14 0.14 0.10 0.10 0.09 0.06 0.06 0.05 0.05 0.03 0.03 0.01 0.01 0.01 0.01 0.00 0.01 0.01 0.01
0.00 0.00 0.00 0.00 0.02 0.02 0.01 0.00 0.00 0.01 0.01 0.02 0.02 0.02 0.03 0.02 0.02 0.03 0.04 0.09 0.13 0.15 0.18 0.20 0.22 0.21 0.22 0.23 0.26 0.25 0.20 0.15 0.12 0.11 0.13 0.13 0.14 0.14 0.12 0.12 0.07 0.06 0.05 0.05 0.04 0.03 0.01 0.00 0.00 0.00 0.00 0.00 0.00 0.00
0.00 0.00 0.00 0.00 0.00 0.00 0.00 0.00 0.00 0.02 0.03 0.04 0.04 0.05 0.07 0.12 0.12 0.10 0.10 0.05 0.05 0.07 0.11 0.13 0.13 0.14 0.16 0.20 0.21 0.22 0.21 0.18 0.16 0.16 0.14 0.12 0.11 0.10 0.08 0.08 0.06 0.03 0.03 0.03 0.02 0.01 0.00 0.00 0.00 0.00 0.00 0.00 0.00 0.00
0.00 0.00 0.00 0.00 0.00 0.00 0.00 0.00 0.00 0.01 0.02 0.01 0.03 0.03 0.03 0.03 0.03 0.05 0.05 0.03 0.05 0.05 0.06 0.07 0.06 0.08 0.11 0.14 0.16 0.18 0.20 0.18 0.16 0.15 0.15 0.10 0.08 0.07 0.05 0.04 0.03 0.02 0.01 0.01 0.00 0.00 0.00 0.00 0.00 0.00 0.00 0.00 0.00 0.01
0.00 0.00 0.00 0.00 0.00 0.00 0.00 0.00 0.00 0.00 0.01 0.01 0.01 0.01 0.03 0.01 0.04 0.05 0.03 0.03 0.03 0.05 0.06 0.05 0.03 0.04 0.07 0.12 0.16 0.18 0.18 0.14 0.12 0.11 0.12 0.08 0.06 0.06 0.05 0.04 0.03 0.02 0.01 0.00 0.00 0.00 0.00 0.00 0.00 0.00 0.00 0.01 0.01 0.01
0.00 0.00 0.00 0.00 0.00 0.00 0.00 0.00 0.01 0.02 0.01 0.00 0.01 0.01 0.02 0.04 0.04 0.04 0.02 0.03 0.04 0.04 0.04 0.04 0.05 0.05 0.06 0.07 0.10 0.11 0.11 0.09 0.09 0.08 0.08 0.07 0.05 0.05 0.04 0.03 0.03 0.02 0.00 0.00 0.00 0.00 0.00 0.00 0.00 0.00 0.00 0.00 0.00 0.00
0.00 0.00 0.00 0.00 0.00 0.00 0.00 0.00 0.00 0.01 0.02 0.03 0.03 0.02 0.03 0.06 0.05 0.04 0.03 0.04 0.04 0.05 0.05 0.05 0.04 0.04 0.05 0.06 0.06 0.06 0.07 0.06 0.07 0.08 0.08 0.07 0.07 0.07 0.05 0.05 0.04 0.03 0.01 0.01 0.01 0.01 0.01 0.01 0.01 0.00 0.01 0.01 0.01 0.00
0.00 0.00 0.00 0.00 0.00 0.00 0.01 0.01 0.01 0.02 0.03 0.02 0.02 0.02 0.04 0.05 0.06 0.05 0.05 0.04 0.04 0.04 0.03 0.03 0.03 0.04 0.05 0.06 0.07 0.07 0.07 0.05 0.04 0.03 0.04 0.05 0.07 0.07 0.06 0.04 0.03 0.02 0.01 0.01 0.01 0.01 0.01 0.01 0.01 0.01 0.00 0.00 0.00 0.00
0.00 0.00 0.00 0.00 0.00 0.00 0.01 0.02 0.02 0.02 0.01 0.01 0.01 0.01 0.02 0.02 0.03 0.02 0.02 0.02 0.02 0.03 0.03 0.03 0.03 0.03 0.03 0.03 0.03 0.04 0.05 0.06 0.05 0.06 0.05 0.05 0.05 0.06 0.04 0.03 0.03 0.02 0.01 0.01 0.01 0.01 0.00 0.00 0.00 0.00 0.00 0.00 0.01 0.00
0.00 0.00 0.00 0.00 0.00 0.00 0.01 0.01 0.01 0.00 0.00 0.01 0.01 0.01 0.01 0.01 0.01 0.02 0.02 0.01 0.02 0.02 0.03 0.04 0.03 0.03 0.03 0.02 0.02 0.02 0.02 0.03 0.03 0.05 0.06 0.06 0.04 0.04 0.03 0.02 0.02 0.02 0.02 0.01 0.01 0.01 0.01 0.00 0.00 0.00 0.00 0.00 0.00 0.00
0.00 0.00 0.00 0.00 0.00 0.00 0.00 0.00 0.00 0.00 0.02 0.02 0.02 0.02 0.02 0.02 0.01 0.01 0.01 0.01 0.02 0.02 0.02 0.03 0.03 0.04 0.05 0.04 0.04 0.04 0.03 0.03 0.03 0.05 0.06 0.07 0.05 0.04 0.03 0.02 0.02 0.02 0.01 0.01 0.00 0.00 0.00 0.00 0.00 0.00 0.00 0.00 0.00 0.00
0.00 0.00 0.00 0.00 0.00 0.00 0.00 0.00 0.00 0.01 0.02 0.02 0.02 0.01 0.01 0.02 0.01 0.00 0.01 0.01 0.01 0.01 0.02 0.02 0.02 0.03 0.04 0.04 0.04 0.04 0.03 0.03 0.03 0.04 0.05 0.05 0.05 0.04 0.02 0.02 0.01 0.01 0.01 0.00 0.00 0.00 0.00 0.00 0.00 0.00 0.00 0.00 0.00 0.00
0.00 0.00 0.00 0.00 0.00 0.00 0.00 0.00 0.00 0.01 0.01 0.01 0.01 0.01 0.01 0.01 0.00 0.00 0.01 0.01 0.01 0.01 0.01 0.01 0.02 0.02 0.02 0.01 0.02 0.02 0.03 0.03 0.03 0.03 0.04 0.03 0.03 0.03 0.01 0.01 0.01 0.00 0.00 0.00 0.00 0.00 0.00 0.00 0.00 0.00 0.00 0.00 0.00 0.00

GFSWCAN_prec_precacc12_189.txt.gz
Total_Precipitation_Accumulation
0.37 0.28 0.19 0.11 0.06 0.03 0.02 0.02 0.01 0.01 0.01 0.01 0.00 0.00 0.00 0.00 0.00 0.01 0.04 0.01 0.02 0.03 0.01 0.00 0.00 0.00 0.03 0.05 0.07 0.12 0.08 0.11 0.19 0.24 0.19 0.12 0.10 0.09 0.07 0.03 0.05 0.09 0.16 0.18 0.24 0.24 0.14 0.05 0.05 0.07 0.12 0.11 0.05 0.03
0.29 0.19 0.10 0.04 0.02 0.01 0.01 0.02 0.01 0.00 0.00 0.00 0.00 0.00 0.00 0.00 0.00 0.00 0.02 0.00 0.01 0.02 0.00 0.00 0.00 0.00 0.00 0.01 0.03 0.05 0.07 0.14 0.31 0.35 0.36 0.36 0.29 0.20 0.16 0.13 0.06 0.12 0.13 0.18 0.15 0.12 0.07 0.09 0.06 0.02 0.00 0.00 0.01 0.01
0.15 0.08 0.04 0.03 0.02 0.01 0.01 0.02 0.01 0.00 0.00 0.00 0.00 0.00 0.00 0.00 0.01 0.01 0.01 0.01 0.01 0.02 0.00 0.00 0.00 0.00 0.00 0.00 0.00 0.03 0.02 0.02 0.11 0.25 0.32 0.34 0.21 0.10 0.13 0.12 0.11 0.06 0.05 0.12 0.09 0.03 0.01 0.00 0.00 0.01 0.00 0.00 0.01 0.01
0.10 0.04 0.04 0.04 0.03 0.03 0.01 0.01 0.02 0.00 0.00 0.00 0.00 0.00 0.00 0.00 0.00 0.02 0.01 0.02 0.01 0.02 0.01 0.00 0.00 0.00 0.00 0.00 0.00 0.00 0.00 0.01 0.05 0.14 0.34 0.32 0.16 0.07 0.07 0.08 0.07 0.06 0.08 0.12 0.09 0.01 0.01 0.00 0.00 0.00 0.00 0.01 0.02 0.01
0.13 0.08 0.05 0.06 0.07 0.06 0.07 0.07 0.03 0.03 0.00 0.00 0.00 0.00 0.00 0.00 0.00 0.03 0.03 0.03 0.02 0.04 0.06 0.02 0.00 0.00 0.00 0.00 0.00 0.00 0.00 0.00 0.02 0.06 0.19 0.17 0.07 0.08 0.06 0.05 0.03 0.01 0.02 0.06 0.04 0.01 0.06 0.01 0.00 0.01 0.01 0.00 0.00 0.00
0.10 0.12 0.06 0.05 0.06 0.07 0.08 0.12 0.13 0.05 0.01 0.00 0.00 0.00 0.00 0.00 0.01 0.02 0.02 0.02 0.01 0.04 0.09 0.03 0.00 0.00 0.00 0.00 0.00 0.00 0.00 0.02 0.08 0.13 0.14 0.16 0.10 0.17 0.18 0.06 0.01 0.00 0.01 0.01 0.01 0.00 0.00 0.00 0.01 0.00 0.00 0.00 0.00 0.00
0.06 0.11 0.10 0.04 0.03 0.04 0.05 0.08 0.18 0.21 0.08 0.00 0.00 0.00 0.00 0.01 0.01 0.02 0.03 0.08 0.02 0.10 0.11 0.05 0.00 0.00 0.00 0.00 0.01 0.01 0.03 0.09 0.11 0.16 0.13 0.07 0.05 0.16 0.11 0.03 0.00 0.00 0.00 0.00 0.00 0.00 0.00 0.00 0.00 0.00 0.00 0.00 0.00 0.00
0.05 0.11 0.16 0.12 0.04 0.05 0.05 0.05 0.06 0.15 0.16 0.02 0.00 0.00 0.01 0.03 0.04 0.03 0.02 0.02 0.03 0.09 0.09 0.06 0.01 0.00 0.00 0.01 0.08 0.10 0.13 0.17 0.22 0.17 0.10 0.06 0.07 0.15 0.08 0.00 0.00 0.00 0.00 0.00 0.00 0.00 0.00 0.00 0.00 0.00 0.00 0.00 0.00 0.00
0.04 0.07 0.12 0.16 0.13 0.09 0.07 0.06 0.03 0.04 0.05 0.02 0.02 0.01 0.02 0.03 0.03 0.01 0.01 0.04 0.15 0.21 0.25 0.11 0.02 0.01 0.07 0.14 0.20 0.23 0.29 0.26 0.17 0.11 0.07 0.10 0.08 0.10 0.01 0.00 0.00 0.00 0.00 0.01 0.01 0.00 0.00 0.00 0.00 0.00 0.00 0.00 0.00 0.01
0.03 0.02 0.05 0.10 0.13 0.10 0.05 0.05 0.02 0.02 0.05 0.05 0.03 0.02 0.03 0.01 0.01 0.04 0.07 0.14 0.14 0.10 0.10 0.05 0.04 0.05 0.07 0.14 0.21 0.30 0.41 0.33 0.24 0.09 0.07 0.13 0.03 0.00 0.00 0.00 0.00 0.00 0.00 0.00 0.00 0.00 0.00 0.00 0.00 0.00 0.01 0.01 0.02 0.01
0.01 0.01 0.01 0.02 0.04 0.05 0.05 0.05 0.04 0.04 0.08 0.08 0.06 0.04 0.12 0.06 0.10 0.16 0.21 0.14 0.10 0.07 0.02 0.00 0.00 0.02 0.04 0.14 0.22 0.19 0.18 0.25 0.27 0.18 0.20 0.15 0.03 0.03 0.06 0.07 0.06 0.06 0.03 0.01 0.00 0.00 0.00 0.00 0.00 0.00 0.01 0.01 0.01 0.00
0.00 0.00 0.00 0.01 0.03 0.06 0.08 0.06 0.05 0.04 0.04 0.04 0.09 0.19 0.22 0.31 0.23 0.12 0.10 0.10 0.17 0.08 0.01 0.02 0.01 0.01 0.01 0.03 0.13 0.30 0.23 0.15 0.12 0.26 0.36 0.07 0.04 0.12 0.08 0.10 0.03 0.00 0.00 0.00 0.00 0.00 0.00 0.00 0.00 0.00 0.00 0.00 0.00 0.00
0.00 0.00 0.00 0.01 0.03 0.05 0.04 0.04 0.03 0.06 0.09 0.12 0.11 0.25 0.38 0.18 0.17 0.10 0.03 0.04 0.05 0.07 0.08 0.08 0.13 0.13 0.10 0.11 0.15 0.15 0.20 0.14 0.08 0.09 0.04 0.02 0.10 0.04 0.00 0.00 0.01 0.01 0.04 0.08 0.09 0.07 0.04 0.03 0.03 0.03 0.03 0.03 0.04 0.03
0.00 0.00 0.01 0.01 0.02 0.03 0.03 0.02 0.03 0.07 0.18 0.18 0.12 0.07 0.22 0.18 0.05 0.05 0.04 0.07 0.10 0.08 0.11 0.19 0.29 0.24 0.19 0.20 0.19 0.14 0.09 0.07 0.05 0.03 0.02 0.08 0.06 0.01 0.00 0.00 0.03 0.08 0.12 0.13 0.10 0.08 0.08 0.07 0.04 0.03 0.03 0.04 0.05 0.07
0.00 0.00 0.00 0.02 0.03 0.04 0.04 0.02 0.02 0.05 0.12 0.13 0.26 0.15 0.06 0.05 0.08 0.15 0.12 0.12 0.11 0.21 0.30 0.32 0.24 0.16 0.20 0.20 0.10 0.10 0.08 0.03 0.01 0.02 0.12 0.14 0.03 0.00 0.00 0.01 0.03 0.08 0.07 0.03 0.02 0.03 0.02 0.00 0.00 0.01 0.02 0.03 0.02 0.01
0.01 0.02 0.01 0.00 0.01 0.02 0.05 0.06 0.08 0.15 0.14 0.10 0.19 0.20 0.14 0.13 0.13 0.17 0.20 0.15 0.09 0.17 0.21 0.37 0.39 0.23 0.15 0.09 0.12 0.05 0.03 0.02 0.08 0.18 0.20 0.12 0.03 0.00 0.00 0.00 0.03 0.04 0.02 0.02 0.02 0.01 0.00 0.00 0.00 0.01 0.00 0.00 0.00 0.00
0.04 0.05 0.03 0.03 0.05 0.08 0.09 0.12 0.16 0.15 0.10 0.12 0.05 0.08 0.11 0.13 0.11 0.09 0.08 0.07 0.13 0.13 0.08 0.16 0.18 0.14 0.14 0.16 0.11 0.12 0.15 0.17 0.18 0.12 0.03 0.00 0.00 0.00 0.01 0.03 0.04 0.03 0.03 0.03 0.02 0.01 0.02 0.02 0.02 0.02 0.02 0.01 0.00 0.00
0.08 0.04 0.06 0.03 0.08 0.18 0.28 0.21 0.23 0.19 0.07 0.02 0.03 0.05 0.07 0.05 0.03 0.01 0.01 0.04 0.09 0.09 0.12 0.19 0.16 0.16 0.14 0.11 0.15 0.27 0.18 0.06 0.02 0.01 0.00 0.00 0.00 0.01 0.04 0.04 0.05 0.06 0.07 0.07 0.06 0.06 0.06 0.06 0.05 0.05 0.04 0.03 0.02 0.02
0.11 0.17 0.21 0.15 0.19 0.23 0.34 0.31 0.22 0.20 0.10 0.07 0.04 0.03 0.02 0.01 0.00 0.00 0.01 0.01 0.04 0.06 0.10 0.11 0.11 0.06 0.09 0.08 0.05 0.02 0.01 0.01 0.01 0.01 0.02 0.02 0.03 0.04 0.05 0.07 0.08 0.11 0.10 0.11 0.10 0.09 0.10 0.09 0.07 0.06 0.06 0.05 0.05 0.04
0.07 0.21 0.33 0.29 0.17 0.23 0.25 0.21 0.16 0.12 0.05 0.03 0.02 0.01 0.02 0.00 0.00 0.01 0.01 0.03 0.06 0.14 0.17 0.16 0.10 0.09 0.04 0.02 0.02 0.01 0.02 0.03 0.06 0.07 0.07 0.10 0.09 0.08 0.09 0.10 0.12 0.12 0.13 0.13 0.12 0.11 0.09 0.07 0.07 0.06 0.05 0.05 0.04 0.04
0.03 0.04 0.09 0.33 0.26 0.20 0.20 0.23 0.19 0.10 0.08 0.04 0.04 0.04 0.03 0.02 0.01 0.01 0.01 0.04 0.18 0.25 0.24 0.20 0.14 0.09 0.08 0.08 0.06 0.07 0.10 0.12 0.14 0.15 0.16 0.17 0.14 0.13 0.14 0.16 0.14 0.14 0.14 0.15 0.14 0.13 0.10 0.09 0.08 0.07 0.06 0.06 0.04 0.02
0.04 0.00 0.03 0.05 0.11 0.12 0.09 0.04 0.07 0.08 0.08 0.05 0.04 0.08 0.08 0.07 0.07 0.08 0.08 0.19 0.25 0.12 0.09 0.12 0.11 0.09 0.10 0.09 0.11 0.14 0.13 0.12 0.12 0.14 0.15 0.16 0.18 0.19 0.19 0.20 0.18 0.18 0.16 0.16 0.13 0.12 0.10 0.07 0.06 0.04 0.03 0.02 0.01 0.01
0.04 0.02 0.09 0.06 0.08 0.05 0.04 0.01 0.02 0.03 0.06 0.06 0.08 0.10 0.12 0.19 0.17 0.12 0.13 0.10 0.07 0.05 0.07 0.08 0.07 0.06 0.07 0.08 0.10 0.11 0.11 0.13 0.15 0.14 0.15 0.16 0.16 0.18 0.17 0.19 0.16 0.13 0.12 0.13 0.09 0.08 0.07 0.05 0.03 0.02 0.02 0.02 0.02 0.01
0.00 0.01 0.01 0.01 0.03 0.01 0.00 0.00 0.00 0.03 0.04 0.03 0.05 0.04 0.07 0.06 0.02 0.05 0.10 0.07 0.04 0.02 0.02 0.02 0.02 0.03 0.06 0.08 0.10 0.09 0.11 0.14 0.15 0.14 0.17 0.17 0.14 0.17 0.15 0.14 0.13 0.11 0.09 0.07 0.05 0.05 0.05 0.04 0.03 0.02 0.01 0.01 0.01 0.01
0.00 0.00 0.00 0.00 0.00 0.00 0.00 0.00 0.00 0.01 0.01 0.01 0.01 0.01 0.03 0.02 0.05 0.06 0.06 0.06 0.04 0.03 0.02 0.01 0.01 0.02 0.06 0.06 0.09 0.09 0.08 0.10 0.14 0.14 0.15 0.16 0.16 0.15 0.13 0.11 0.10 0.08 0.09 0.07 0.06 0.05 0.05 0.04 0.03 0.02 0.01 0.01 0.00 0.01
0.00 0.00 0.00 0.00 0.00 0.00 0.00 0.00 0.00 0.01 0.00 0.01 0.01 0.01 0.02 0.04 0.04 0.05 0.03 0.04 0.05 0.03 0.03 0.03 0.02 0.02 0.03 0.03 0.04 0.05 0.06 0.07 0.10 0.12 0.10 0.11 0.12 0.15 0.11 0.08 0.07 0.07 0.07 0.08 0.05 0.04 0.04 0.03 0.02 0.02 0.01 0.01 0.01 0.00
0.00 0.00 0.00 0.00 0.00 0.00 0.00 0.00 0.00 0.00 0.00 0.01 0.01 0.00 0.01 0.04 0.07 0.05 0.03 0.01 0.02 0.02 0.02 0.02 0.03 0.03 0.03 0.04 0.04 0.04 0.05 0.05 0.06 0.08 0.10 0.09 0.09 0.10 0.12 0.12 0.08 0.10 0.07 0.07 0.06 0.06 0.05 0.04 0.04 0.04 0.03 0.03 0.02 0.01
0.00 0.00 0.00 0.00 0.00 0.00 0.00 0.00 0.00 0.01 0.01 0.00 0.00 0.01 0.01 0.03 0.06 0.02 0.02 0.01 0.01 0.01 0.01 0.02 0.03 0.03 0.02 0.03 0.04 0.05 0.07 0.06 0.05 0.06 0.06 0.07 0.08 0.09 0.09 0.08 0.07 0.06 0.06 0.06 0.06 0.05 0.04 0.04 0.03 0.02 0.01 0.01 0.02 0.01
0.00 0.00 0.00 0.00 0.00 0.00 0.00 0.00 0.01 0.01 0.00 0.00 0.00 0.00 0.01 0.01 0.01 0.01 0.01 0.01 0.01 0.02 0.03 0.03 0.06 0.03 0.04 0.08 0.08 0.03 0.04 0.05 0.06 0.09 0.11 0.13 0.06 0.06 0.07 0.07 0.06 0.06 0.05 0.05 0.05 0.04 0.02 0.02 0.01 0.01 0.01 0.01 0.01 0.01
0.00 0.00 0.00 0.00 0.00 0.00 0.01 0.01 0.02 0.01 0.00 0.00 0.00 0.00 0.01 0.02 0.01 0.00 0.01 0.01 0.02 0.02 0.03 0.03 0.04 0.02 0.03 0.03 0.10 0.06 0.02 0.02 0.03 0.06 0.10 0.11 0.07 0.05 0.05 0.05 0.04 0.04 0.03 0.03 0.02 0.03 0.02 0.01 0.01 0.00 0.00 0.00 0.00 0.00
0.00 0.00 0.00 0.00 0.00 0.01 0.01 0.00 0.00 0.00 0.00 0.01 0.01 0.01 0.01 0.03 0.01 0.01 0.00 0.01 0.01 0.01 0.02 0.02 0.03 0.02 0.02 0.02 0.02 0.05 0.07 0.02 0.02 0.03 0.06 0.07 0.06 0.04 0.04 0.04 0.05 0.03 0.02 0.02 0.01 0.01 0.01 0.01 0.01 0.01 0.00 0.00 0.00 0.00
0.00 0.00 0.00 0.00 0.00 0.01 0.00 0.00 0.00 0.01 0.01 0.02 0.02 0.01 0.01 0.01 0.02 0.03 0.01 0.01 0.01 0.02 0.01 0.01 0.02 0.03 0.01 0.02 0.03 0.02 0.02 0.03 0.02 0.03 0.03 0.05 0.04 0.04 0.03 0.03 0.03 0.03 0.02 0.02 0.01 0.01 0.01 0.00 0.00 0.00 0.00 0.00 0.00 0.00
0.00 0.00 0.00 0.00 0.00 0.00 0.01 0.00 0.00 0.00 0.00 0.01 0.01 0.01 0.01 0.01 0.01 0.02 0.01 0.00 0.01 0.01 0.01 0.02 0.02 0.02 0.01 0.01 0.01 0.02 0.02 0.02 0.02 0.02 0.02 0.03 0.02 0.03 0.03 0.03 0.02 0.02 0.02 0.02 0.02 0.01 0.00 0.00 0.00 0.00 0.00 0.00 0.00 0.00

GFSWCAN_prec_precacc12_195.txt.gz
Total_Precipitation_Accumulation
0.94 0.67 0.61 0.57 0.46 0.33 0.28 0.20 0.12 0.09 0.09 0.09 0.09 0.08 0.06 0.04 0.03 0.02 0.06 0.01 0.02 0.03 0.00 0.00 0.00 0.00 0.01 0.02 0.02 0.03 0.03 0.05 0.09 0.16 0.24 0.16 0.13 0.07 0.05 0.01 0.01 0.05 0.11 0.13 0.21 0.23 0.15 0.09 0.10 0.15 0.17 0.15 0.08 0.02
0.75 0.66 0.56 0.47 0.41 0.32 0.20 0.10 0.06 0.05 0.04 0.03 0.02 0.01 0.00 0.00 0.00 0.00 0.02 0.00 0.00 0.00 0.00 0.00 0.00 0.00 0.00 0.00 0.01 0.01 0.02 0.05 0.16 0.22 0.23 0.26 0.27 0.18 0.19 0.11 0.06 0.12 0.19 0.30 0.35 0.24 0.19 0.21 0.21 0.12 0.04 0.01 0.00 0.00
0.78 0.60 0.44 0.33 0.30 0.22 0.11 0.05 0.02 0.00 0.00 0.00 0.00 0.00 0.00 0.00 0.00 0.00 0.00 0.00 0.00 0.00 0.00 0.00 0.00 0.00 0.00 0.00 0.00 0.00 0.00 0.00 0.02 0.08 0.07 0.11 0.08 0.04 0.06 0.07 0.07 0.05 0.05 0.15 0.09 0.03 0.02 0.01 0.02 0.05 0.06 0.04 0.02 0.01
0.54 0.41 0.30 0.21 0.16 0.09 0.04 0.02 0.00 0.00 0.00 0.00 0.00 0.00 0.00 0.00 0.00 0.00 0.00 0.01 0.00 0.00 0.00 0.00 0.00 0.00 0.00 0.00 0.00 0.00 0.00 0.00 0.00 0.02 0.04 0.05 0.04 0.02 0.02 0.03 0.01 0.02 0.04 0.09 0.07 0.01 0.01 0.00 0.01 0.01 0.03 0.02 0.01 0.00
0.24 0.16 0.09 0.05 0.03 0.02 0.01 0.00 0.00 0.00 0.00 0.00 0.00 0.00 0.00 0.00 0.00 0.00 0.00 0.01 0.00 0.01 0.03 0.01 0.00 0.00 0.00 0.00 0.00 0.00 0.00 0.00 0.00 0.00 0.01 0.01 0.00 0.02 0.00 0.00 0.00 0.00 0.01 0.03 0.02 0.01 0.05 0.01 0.00 0.01 0.01 0.00 0.00 0.00
0.06 0.05 0.02 0.02 0.01 0.00 0.01 0.00 0.00 0.00 0.00 0.00 0.00 0.00 0.00 0.00 0.00 0.00 0.00 0.01 0.00 0.01 0.03 0.01 0.00 0.00 0.00 0.00 0.00 0.00 0.00 0.00 0.01 0.02 0.02 0.01 0.00 0.03 0.02 0.00 0.00 0.00 0.01 0.01 0.01 0.00 0.00 0.00 0.01 0.00 0.00 0.00 0.00 0.00
0.04 0.09 0.08 0.03 0.01 0.01 0.02 0.01 0.01 0.01 0.00 0.00 0.00 0.00 0.00 0.00 0.00 0.01 0.01 0.05 0.01 0.04 0.05 0.02 0.00 0.00 0.00 0.00 0.01 0.01 0.00 0.00 0.02 0.05 0.04 0.01 0.02 0.12 0.05 0.02 0.00 0.00 0.00 0.00 0.00 0.00 0.00 0.00 0.00 0.00 0.00 0.00 0.00 0.00
0.03 0.10 0.15 0.11 0.03 0.03 0.03 0.02 0.03 0.08 0.04 0.00 0.00 0.00 0.00 0.00 0.00 0.00 0.00 0.00 0.01 0.04 0.05 0.03 0.00 0.00 0.00 0.01 0.03 0.07 0.07 0.04 0.02 0.02 0.02 0.02 0.05 0.09 0.07 0.00 0.00 0.00 0.00 0.00 0.00 0.01 0.01 0.01 0.01 0.01 0.01 0.01 0.01 0.00
0.04 0.08 0.14 0.16 0.12 0.08 0.05 0.06 0.02 0.03 0.04 0.01 0.00 0.00 0.00 0.00 0.00 0.00 0.00 0.00 0.03 0.05 0.04 0.02 0.01 0.01 0.04 0.08 0.11 0.14 0.17 0.16 0.06 0.03 0.01 0.06 0.09 0.09 0.01 0.00 0.00 0.00 0.00 0.01 0.03 0.03 0.03 0.04 0.03 0.01 0.01 0.01 0.00 0.00
0.05 0.07 0.10 0.15 0.14 0.10 0.04 0.05 0.02 0.01 0.01 0.01 0.00 0.01 0.01 0.01 0.00 0.00 0.01 0.02 0.03 0.03 0.03 0.01 0.00 0.00 0.02 0.05 0.09 0.18 0.24 0.17 0.14 0.06 0.04 0.10 0.03 0.00 0.00 0.00 0.00 0.00 0.00 0.00 0.00 0.00 0.01 0.02 0.03 0.02 0.01 0.01 0.02 0.01
0.04 0.04 0.07 0.13 0.15 0.12 0.05 0.03 0.01 0.01 0.02 0.03 0.02 0.02 0.06 0.01 0.01 0.04 0.05 0.02 0.02 0.02 0.01 0.00 0.00 0.00 0.00 0.00 0.01 0.02 0.05 0.17 0.22 0.14 0.18 0.19 0.14 0.22 0.15 0.14 0.10 0.08 0.05 0.04 0.02 0.01 0.00 0.01 0.00 0.00 0.01 0.01 0.01 0.00
0.01 0.02 0.06 0.09 0.14 0.18 0.09 0.04 0.01 0.01 0.01 0.02 0.06 0.11 0.10 0.03 0.05 0.04 0.02 0.02 0.04 0.02 0.00 0.02 0.02 0.04 0.03 0.03 0.03 0.02 0.07 0.10 0.08 0.21 0.40 0.21 0.23 0.39 0.25 0.15 0.04 0.00 0.00 0.00 0.00 0.00 0.00 0.00 0.00 0.00 0.00 0.00 0.00 0.01
0.01 0.02 0.06 0.08 0.13 0.18 0.09 0.02 0.01 0.03 0.05 0.06 0.04 0.03 0.02 0.02 0.03 0.05 0.01 0.00 0.01 0.03 0.04 0.06 0.15 0.17 0.09 0.14 0.12 0.05 0.15 0.11 0.07 0.09 0.05 0.06 0.15 0.07 0.01 0.00 0.01 0.00 0.00 0.00 0.00 0.01 0.02 0.02 0.03 0.03 0.03 0.04 0.05 0.05
0.00 0.00 0.01 0.02 0.05 0.06 0.02 0.00 0.00 0.02 0.09 0.08 0.02 0.01 0.02 0.03 0.01 0.01 0.03 0.04 0.06 0.05 0.11 0.20 0.33 0.31 0.26 0.40 0.25 0.11 0.06 0.08 0.06 0.04 0.07 0.17 0.17 0.11 0.07 0.05 0.03 0.00 0.00 0.01 0.03 0.06 0.08 0.07 0.04 0.03 0.04 0.06 0.09 0.14
0.00 0.00 0.01 0.02 0.02 0.02 0.01 0.00 0.00 0.02 0.08 0.05 0.06 0.02 0.01 0.02 0.03 0.05 0.05 0.09 0.11 0.31 0.62 0.56 0.31 0.15 0.14 0.17 0.18 0.09 0.07 0.05 0.04 0.09 0.27 0.32 0.19 0.11 0.04 0.00 0.00 0.00 0.00 0.02 0.02 0.03 0.02 0.01 0.01 0.02 0.03 0.03 0.04 0.05
0.00 0.00 0.00 0.01 0.01 0.01 0.01 0.00 0.01 0.07 0.06 0.05 0.02 0.01 0.02 0.03 0.08 0.15 0.18 0.14 0.08 0.32 0.33 0.45 0.43 0.41 0.12 0.06 0.07 0.04 0.04 0.04 0.18 0.29 0.31 0.18 0.06 0.01 0.00 0.00 0.00 0.00 0.01 0.01 0.01 0.01 0.00 0.00 0.01 0.02 0.02 0.02 0.02 0.01
0.00 0.00 0.00 0.00 0.02 0.02 0.02 0.04 0.02 0.04 0.01 0.01 0.00 0.01 0.00 0.01 0.03 0.06 0.07 0.06 0.10 0.14 0.06 0.11 0.20 0.37 0.37 0.24 0.19 0.21 0.23 0.30 0.36 0.26 0.07 0.00 0.00 0.00 0.00 0.00 0.00 0.00 0.02 0.03 0.02 0.02 0.03 0.03 0.04 0.05 0.05 0.06 0.04 0.03
0.00 0.00 0.00 0.00 0.01 0.03 0.04 0.04 0.02 0.02 0.01 0.00 0.00 0.01 0.02 0.02 0.02 0.01 0.01 0.03 0.08 0.08 0.09 0.15 0.14 0.10 0.12 0.17 0.27 0.36 0.30 0.20 0.08 0.01 0.00 0.00 0.00 0.00 0.00 0.00 0.01 0.01 0.03 0.05 0.06 0.06 0.08 0.09 0.08 0.08 0.08 0.09 0.08 0.07
0.04 0.04 0.05 0.01 0.02 0.02 0.04 0.05 0.02 0.02 0.01 0.01 0.01 0.02 0.02 0.01 0.00 0.00 0.01 0.01 0.03 0.04 0.04 0.04 0.05 0.04 0.08 0.08 0.05 0.02 0.01 0.01 0.01 0.00 0.00 0.00 0.00 0.00 0.00 0.01 0.03 0.06 0.06 0.08 0.10 0.11 0.13 0.13 0.12 0.12 0.12 0.12 0.12 0.13
0.07 0.16 0.21 0.14 0.06 0.07 0.05 0.07 0.04 0.03 0.00 0.01 0.01 0.01 0.01 0.00 0.00 0.00 0.00 0.00 0.01 0.06 0.09 0.08 0.06 0.06 0.03 0.04 0.03 0.02 0.02 0.01 0.01 0.02 0.01 0.03 0.01 0.01 0.02 0.04 0.08 0.08 0.09 0.11 0.13 0.13 0.12 0.12 0.14 0.15 0.14 0.13 0.12 0.13
0.03 0.05 0.12 0.38 0.23 0.16 0.18 0.21 0.18 0.07 0.06 0.03 0.03 0.04 0.02 0.01 0.00 0.01 0.02 0.03 0.12 0.14 0.16 0.17 0.13 0.08 0.09 0.13 0.04 0.01 0.00 0.01 0.02 0.08 0.09 0.08 0.02 0.03 0.05 0.08 0.09 0.10 0.11 0.13 0.14 0.15 0.14 0.15 0.17 0.17 0.16 0.17 0.12 0.09
0.05 0.02 0.06 0.13 0.17 0.12 0.09 0.04 0.07 0.07 0.09 0.03 0.03 0.06 0.05 0.06 0.06 0.06 0.08 0.17 0.27 0.12 0.07 0.09 0.07 0.06 0.07 0.07 0.03 0.01 0.01 0.01 0.02 0.04 0.04 0.05 0.06 0.08 0.10 0.11 0.14 0.15 0.15 0.15 0.13 0.13 0.14 0.14 0.14 0.14 0.12 0.13 0.10 0.10
0.21 0.23 0.21 0.08 0.10 0.09 0.05 0.03 0.05 0.02 0.04 0.03 0.04 0.06 0.07 0.12 0.09 0.04 0.05 0.06 0.05 0.02 0.03 0.03 0.02 0.02 0.02 0.06 0.03 0.00 0.01 0.03 0.06 0.05 0.06 0.09 0.09 0.11 0.13 0.16 0.16 0.15 0.16 0.18 0.16 0.14 0.13 0.12 0.11 0.10 0.10 0.11 0.11 0.10
0.05 0.14 0.09 0.04 0.08 0.08 0.04 0.02 0.01 0.01 0.02 0.02 0.02 0.02 0.03 0.05 0.01 0.02 0.08 0.07 0.04 0.01 0.00 0.00 0.00 0.00 0.01 0.03 0.03 0.01 0.01 0.03 0.05 0.05 0.08 0.10 0.08 0.12 0.14 0.17 0.18 0.21 0.20 0.19 0.16 0.15 0.15 0.13 0.12 0.11 0.10 0.10 0.10 0.08
0.00 0.00 0.00 0.00 0.00 0.00 0.00 0.00 0.00 0.00 0.00 0.00 0.00 0.00 0.01 0.01 0.01 0.02 0.05 0.07 0.04 0.01 0.00 0.00 0.00 0.00 0.03 0.02 0.02 0.01 0.00 0.02 0.05 0.07 0.06 0.09 0.11 0.11 0.10 0.12 0.14 0.14 0.17 0.15 0.14 0.13 0.14 0.12 0.10 0.09 0.08 0.07 0.07 0.07
0.00 0.00 0.00 0.00 0.00 0.00 0.00 0.00 0.00 0.00 0.00 0.00 0.00 0.00 0.00 0.00 0.00 0.03 0.03 0.03 0.03 0.01 0.01 0.01 0.01 0.00 0.01 0.01 0.01 0.01 0.01 0.01 0.04 0.06 0.04 0.06 0.08 0.12 0.10 0.08 0.10 0.12 0.12 0.15 0.10 0.10 0.11 0.10 0.09 0.09 0.08 0.08 0.08 0.07
0.00 0.00 0.00 0.00 0.00 0.00 0.00 0.00 0.00 0.00 0.00 0.00 0.00 0.00 0.00 0.01 0.03 0.03 0.02 0.00 0.01 0.00 0.00 0.00 0.01 0.01 0.02 0.02 0.01 0.01 0.02 0.02 0.02 0.04 0.06 0.05 0.06 0.09 0.12 0.13 0.10 0.13 0.12 0.12 0.11 0.10 0.09 0.09 0.09 0.09 0.08 0.08 0.08 0.06
0.00 0.00 0.00 0.00 0.00 0.00 0.00 0.00 0.00 0.00 0.00 0.00 0.00 0.00 0.00 0.01 0.03 0.01 0.00 0.00 0.00 0.00 0.00 0.00 0.02 0.02 0.01 0.01 0.02 0.01 0.02 0.02 0.03 0.07 0.07 0.04 0.04 0.06 0.08 0.09 0.09 0.09 0.09 0.11 0.10 0.09 0.08 0.07 0.07 0.06 0.06 0.05 0.06 0.05
0.00 0.00 0.00 0.00 0.00 0.00 0.00 0.00 0.00 0.00 0.00 0.00 0.00 0.00 0.00 0.00 0.00 0.00 0.00 0.00 0.00 0.01 0.01 0.01 0.04 0.01 0.03 0.07 0.08 0.01 0.01 0.01 0.02 0.05 0.09 0.11 0.04 0.06 0.07 0.06 0.06 0.06 0.06 0.07 0.08 0.08 0.06 0.05 0.05 0.05 0.05 0.05 0.05 0.03
0.00 0.00 0.00 0.00 0.00 0.00 0.00 0.00 0.01 0.01 0.00 0.00 0.00 0.00 0.00 0.02 0.01 0.00 0.00 0.00 0.00 0.01 0.01 0.01 0.02 0.01 0.02 0.02 0.09 0.05 0.01 0.00 0.01 0.03 0.07 0.09 0.07 0.05 0.05 0.04 0.03 0.03 0.03 0.03 0.04 0.07 0.06 0.05 0.05 0.04 0.03 0.03 0.02 0.01
0.00 0.00 0.00 0.00 0.00 0.00 0.01 0.00 0.00 0.00 0.00 0.00 0.00 0.00 0.01 0.03 0.01 0.00 0.00 0.00 0.00 0.01 0.01 0.01 0.02 0.01 0.00 0.01 0.01 0.03 0.05 0.01 0.00 0.01 0.04 0.05 0.03 0.02 0.02 0.04 0.04 0.02 0.01 0.01 0.02 0.02 0.03 0.04 0.03 0.03 0.02 0.01 0.00 0.00
0.00 0.00 0.00 0.00 0.00 0.01 0.00 0.00 0.00 0.00 0.01 0.01 0.01 0.01 0.01 0.01 0.02 0.04 0.01 0.00 0.01 0.02 0.01 0.00 0.01 0.02 0.00 0.01 0.01 0.01 0.01 0.01 0.01 0.01 0.01 0.03 0.02 0.02 0.02 0.02 0.03 0.03 0.02 0.02 0.02 0.03 0.02 0.01 0.01 0.01 0.00 0.00 0.00 0.00
0.00 0.00 0.00 0.00 0.00 0.00 0.01 0.00 0.00 0.00 0.00 0.01 0.02 0.02 0.01 0.00 0.01 0.02 0.01 0.00 0.00 0.00 0.01 0.01 0.01 0.01 0.00 0.00 0.01 0.01 0.01 0.00 0.00 0.00 0.00 0.01 0.01 0.02 0.02 0.02 0.02 0.03 0.03 0.03 0.03 0.03 0.02 0.01 0.00 0.00 0.00 0.00 0.00 0.00